Probability
21 22 22 20 19 19 18 14 10 7 6 8 11 12 10 9 9 9 8 6 5 4 3 3 3 3 3 3 3 2 3 3 3 3 2 1 0 0 0 0 0 0 0
23 22 21 21 20 18 17 15 12 10 9 10 11 11 9 9 10 10 8 6 4 3 3 3 3 3 3 3 3 3 3 3 3 2 2 1 0 0 0 0 0 0 0
25 24 22 22 21 19 17 16 14 12 11 10 10 9 9 10 11 10 8 6 3 3 3 3 3 3 4 3 3 3 3 3 3 3 2 1 0 0 0 0 0 0 0
25 25 23 22 21 18 16 15 15 13 11 10 10 10 10 11 11 10 7 4 3 3 3 3 4 4 4 4 3 3 4 3 3 3 2 1 0 0 0 0 0 0 0
23 24 23 22 20 17 15 13 14 14 12 12 12 11 11 10 9 7 5 3 3 3 3 4 4 5 4 3 3 4 5 4 3 3 1 0 0 0 0 0 0 0 0
22 22 22 21 20 18 14 12 13 15 15 14 14 12 9 7 5 5 4 3 3 3 3 3 4 4 3 3 3 4 4 4 3 2 1 0 0 0 0 0 0 0 0
23 21 20 19 19 18 16 13 14 15 15 14 13 12 9 5 3 3 3 3 3 3 3 3 3 3 3 3 3 3 2 2 1 1 0 0 0 0 0 0 0 0 0
22 20 19 18 17 18 18 16 15 14 13 13 13 12 8 4 2 2 3 3 3 3 3 3 3 3 3 3 2 2 1 0 0 0 0 0 0 0 0 0 0 0 0
19 18 17 17 17 17 18 18 17 15 13 12 12 11 8 4 2 1 2 4 4 3 3 3 3 3 2 1 1 1 1 0 0 0 0 0 0 0 0 0 0 0 0
15 15 16 17 17 18 18 18 17 15 13 11 10 9 8 6 3 1 2 4 5 4 4 4 4 3 1 0 0 0 0 0 0 0 0 0 0 0 0 0 0 0 0
12 13 15 16 17 18 18 17 16 13 11 9 8 8 9 8 4 1 2 4 6 6 6 6 5 3 1 0 0 0 0 0 0 0 0 0 0 0 0 0 0 0 0
10 11 14 15 15 16 16 15 14 11 10 9 9 9 11 9 6 2 1 3 6 7 7 6 4 2 0 0 0 0 0 0 0 0 0 0 0 0 0 0 0 0 0
10 11 12 13 12 12 13 13 12 11 10 10 11 11 12 12 8 3 1 1 4 6 5 4 2 1 0 0 0 0 0 0 0 0 0 0 0 0 0 0 0 0 0
10 10 11 11 11 10 11 11 11 9 9 9 10 11 11 11 8 4 2 1 3 4 3 1 1 0 0 0 0 0 0 0 0 0 0 0 0 0 0 0 0 0 0
9 9 9 10 11 10 9 9 8 7 7 8 8 8 8 7 5 4 3 2 2 2 1 0 0 0 0 0 0 0 0 0 0 0 0 0 0 0 0 0 0 0 0
8 8 9 11 12 11 9 6 5 5 5 6 6 6 5 3 2 2 2 2 1 1 1 0 0 0 0 0 0 0 0 0 0 0 0 0 0 0 0 0 0 0 0
8 8 9 11 12 12 10 7 4 3 3 3 3 3 3 1 0 0 1 1 0 1 1 1 0 0 0 0 0 0 0 0 0 0 0 0 0 0 0 0 0 0 0
8 8 9 10 11 12 11 9 5 3 2 1 1 1 1 0 0 0 0 0 0 1 1 1 0 0 0 0 0 0 0 0 0 0 0 0 0 0 0 0 0 0 0
5 6 6 7 8 9 9 7 5 4 2 1 0 0 0 0 0 0 0 0 0 0 0 0 0 0 0 0 0 0 0 0 0 0 0 0 0 0 0 0 0 0 0
3 3 3 3 4 6 6 4 3 3 2 1 0 0 0 0 0 0 0 0 0 0 0 0 0 0 0 0 0 0 0 0 0 0 0 0 0 0 0 0 0 0 0
1 1 1 1 1 3 3 2 1 1 1 0 0 0 0 0 0 0 0 0 0 0 0 0 0 0 0 0 0 0 0 0 0 0 0 0 0 0 0 0 0 0 0
0 0 0 0 0 1 1 0 0 0 0 0 0 0 0 0 0 0 0 0 0 0 0 0 0 0 0 0 0 0 0 0 0 0 0 0 0 0 0 0 0 0 0
0 0 0 0 0 0 0 0 0 0 0 0 0 0 0 0 0 0 0 0 0 0 0 0 0 0 0 0 0 0 0 0 0 0 0 0 0 0 0 0 0 0 0
0 0 0 0 0 0 1 0 0 0 0 0 0 0 0 0 0 0 0 0 0 0 0 0 0 0 0 0 0 0 0 0 0 0 0 0 0 0 0 0 0 0 0
0 0 0 0 0 0 0 0 0 0 0 0 0 0 0 0 0 0 0 0 0 0 0 0 0 0 0 0 0 0 0 0 0 0 0 0 0 0 0 0 0 0 0
0 0 0 0 0 0 0 0 0 0 0 0 0 0 0 0 0 0 0 0 0 0 0 0 0 0 0 0 0 0 0 0 0 0 0 0 0 0 0 0 0 0 0
Wind_Speed
5 5 5 5 5 5 4 4 4 4 3 3 3 3 3 2 2 1 1 1 1 1 1 1 2 1 1 1 1 1 1 2 2 3 2 2 1 2 1 2 2 3 3
6 5 4 4 5 5 5 4 4 4 4 4 3 3 3 3 3 3 2 2 2 2 2 1 2 1 1 1 1 1 1 2 2 2 2 2 2 2 2 2 2 2 2
5 5 4 4 4 5 5 4 4 4 4 3 4 4 4 3 3 3 3 3 3 3 3 3 3 1 2 1 1 1 1 1 1 2 2 2 2 2 1 1 1 1 2
5 5 5 5 5 5 4 4 4 4 4 4 4 4 4 4 4 3 3 3 3 3 3 3 3 3 3 3 2 2 1 1 1 1 1 2 2 2 0 1 1 1 2
5 5 5 4 4 4 4 4 4 4 4 4 3 3 4 4 4 4 3 3 3 3 3 3 4 4 5 4 2 2 2 1 1 1 1 1 2 1 1 1 1 1 2
5 5 5 4 4 4 4 4 4 4 3 3 4 4 4 4 4 5 4 3 3 3 4 3 3 3 3 3 4 4 4 3 3 2 2 2 3 2 1 1 1 0 2
5 5 5 5 5 5 4 4 4 4 3 3 3 4 4 4 6 6 6 3 4 4 4 3 3 2 2 2 2 3 3 5 5 4 4 4 3 3 2 2 2 2 3
3 4 4 5 5 5 4 4 4 4 4 4 4 4 4 4 6 6 5 3 3 3 4 4 4 3 3 3 2 2 3 3 4 3 4 5 5 4 4 4 3 2 2
2 3 4 4 5 5 5 5 4 3 3 3 4 4 4 4 5 5 4 2 2 3 4 3 4 4 5 5 3 2 3 3 3 3 4 4 5 5 4 2 1 1 2
2 3 3 4 4 5 5 5 3 3 4 3 3 3 4 3 4 5 5 2 2 2 2 3 4 4 5 5 4 3 3 4 2 2 2 3 2 3 4 4 4 3 2
2 2 2 3 4 4 4 3 3 3 2 2 2 2 2 3 4 4 5 3 3 2 2 2 2 3 3 4 4 4 6 4 1 1 2 2 2 2 2 3 3 4 4
1 1 1 2 2 2 2 2 2 3 2 2 2 2 2 2 3 3 4 4 3 3 3 2 2 3 3 3 3 3 4 2 1 1 1 2 2 3 3 3 4 4 5
0 1 1 2 2 2 2 2 2 2 2 2 2 2 2 2 2 4 5 5 4 2 2 3 3 3 2 2 3 3 2 1 1 2 3 3 3 3 2 2 2 2 3
1 2 2 2 2 1 1 2 2 3 3 3 3 3 3 2 2 2 2 2 3 2 2 2 2 2 2 2 2 1 1 2 2 3 3 3 2 2 2 2 2 1 1
2 2 2 2 2 2 1 2 3 4 5 5 4 3 3 3 5 5 3 3 3 2 1 0 1 1 1 1 1 2 1 1 2 2 3 3 2 2 3 2 2 1 1
2 2 2 1 1 2 2 1 1 2 4 5 4 4 3 4 4 5 5 5 4 4 3 1 1 2 2 2 2 2 2 3 3 3 3 3 3 3 3 2 2 2 3
2 2 2 1 2 2 2 2 1 2 1 1 2 3 3 3 3 3 4 3 4 5 2 2 3 3 3 3 3 3 3 3 3 3 3 3 3 3 2 2 2 2 3
2 2 2 2 2 2 2 2 2 2 1 1 2 2 3 2 3 3 2 3 1 2 2 3 3 3 3 3 3 3 3 3 2 2 3 3 3 2 2 3 3 3 3
1 1 1 2 2 2 2 2 2 2 2 1 1 1 1 1 1 1 3 2 2 2 2 3 3 3 2 2 2 3 3 2 2 2 2 3 3 2 3 3 3 4 3
0 1 1 1 1 1 1 1 1 2 1 1 1 1 1 1 0 1 1 2 2 2 2 2 2 2 2 2 2 2 2 2 2 2 3 3 2 2 3 3 3 2 3
1 1 1 1 1 1 1 1 1 1 1 1 1 1 3 2 2 2 1 2 2 2 2 2 1 1 1 1 1 2 2 2 2 2 2 3 2 2 2 2 3 2 2
1 1 0 1 1 1 1 1 1 1 1 1 1 0 1 1 1 1 1 1 2 2 1 1 1 1 1 2 2 2 2 2 2 2 3 3 2 2 2 2 2 2 2
0 0 1 0 0 1 1 1 1 1 1 1 1 1 1 1 1 1 1 1 1 1 1 1 1 1 1 1 1 2 2 3 3 3 3 3 3 2 2 2 3 2 3
0 0 0 0 0 0 1 0 0 1 1 1 1 1 1 1 0 1 1 1 1 1 0 0 1 1 1 1 1 1 2 3 3 3 3 3 3 2 2 2 3 3 3
0 1 0 0 0 0 1 1 1 1 1 1 1 1 0 0 0 1 1 1 0 0 1 0 0 1 1 1 1 2 3 4 3 3 3 2 3 3 2 2 2 2 2
0 0 0 0 1 1 1 1 1 1 1 1 1 1 1 1 0 0 0 0 0 1 1 1 1 1 0 1 2 3 3 4 4 4 2 2 2 2 2 2 2 2 2
Wind_Direction
172 172 164 171 171 169 175 180 181 184 187 184 185 186 191 192 184 173 195 203 213 247 259 231 254 250 250 255 222 198 199 180 229 277 280 295 276 266 279 242 233 227 234
176 172 170 175 170 175 185 186 179 183 191 191 187 190 196 193 187 186 206 216 216 232 244 234 250 251 255 258 226 224 227 207 198 252 284 297 275 258 260 259 247 236 231
174 170 169 179 182 187 192 189 182 183 188 191 188 192 199 197 194 199 206 218 226 230 226 222 234 221 252 254 240 238 242 241 204 211 262 280 285 287 315 299 281 286 264
173 171 179 191 193 191 188 186 188 187 191 196 201 203 199 197 198 202 210 215 228 239 237 228 226 217 226 230 233 234 229 232 230 222 263 282 283 290 298 275 306 306 295
177 181 193 195 188 180 183 188 188 190 196 191 195 209 202 199 201 199 207 212 220 242 253 242 234 228 224 218 219 218 207 211 223 236 263 290 285 299 274 245 249 296 304
177 187 189 185 183 182 185 186 187 193 198 190 199 206 210 215 209 209 206 212 219 228 245 252 248 236 241 240 241 230 210 201 207 211 234 242 258 253 251 244 216 288 296
179 184 187 182 186 191 190 187 195 200 199 202 200 197 211 223 217 223 223 210 212 220 227 235 254 256 246 241 258 262 248 231 210 199 214 230 233 229 218 253 239 218 234
175 182 184 182 187 188 186 198 210 205 199 200 203 200 207 228 220 225 229 217 221 229 227 224 230 250 240 218 224 246 260 256 237 219 213 227 229 223 211 219 228 238 259
182 195 194 189 195 189 193 204 205 198 202 205 200 201 205 228 219 217 209 206 227 245 244 238 233 238 242 225 203 229 267 281 274 245 235 242 243 238 220 183 203 201 272
211 210 198 190 192 197 200 206 203 193 202 199 205 206 201 220 226 216 200 192 223 252 264 254 246 245 244 223 203 206 238 264 276 305 303 299 277 258 236 205 197 198 218
209 203 206 200 198 197 196 198 193 187 188 190 197 217 215 224 230 216 199 191 207 229 247 262 268 267 254 239 221 212 227 231 236 243 266 282 286 276 258 234 214 200 206
178 192 211 212 211 198 190 194 182 170 174 189 193 225 245 234 225 221 205 210 203 204 235 246 252 255 258 259 245 239 235 217 201 242 272 272 270 267 264 250 231 225 221
182 240 225 212 214 192 188 195 182 166 171 192 192 211 237 247 239 229 220 225 227 217 233 244 253 257 271 264 259 264 239 184 200 236 251 258 256 255 260 271 265 247 257
200 231 223 198 209 213 198 192 181 181 182 189 196 211 225 235 240 240 237 235 243 247 254 264 267 260 265 266 282 295 234 208 211 236 250 257 264 265 261 252 253 256 270
222 225 224 209 198 195 201 213 203 203 195 193 203 201 205 228 241 228 207 215 214 215 177 49 16 346 308 302 297 288 269 248 239 245 248 258 262 263 268 258 237 224 222
231 235 222 215 202 187 180 297 308 231 216 212 210 203 219 232 245 233 227 222 209 177 149 177 215 227 234 246 260 272 266 254 251 247 245 245 247 252 265 261 237 227 241
217 223 219 207 198 195 187 187 263 332 338 258 212 209 211 225 238 235 224 208 189 162 163 199 214 227 237 239 244 250 257 256 249 243 244 245 244 248 253 255 248 241 249
224 222 209 201 197 196 197 199 196 191 231 310 293 235 218 223 238 235 188 126 133 172 200 212 223 230 236 241 243 252 262 265 256 245 244 245 240 242 251 255 252 246 243
214 238 228 211 200 205 203 196 199 206 201 218 270 309 252 210 236 221 158 162 192 212 219 221 228 231 240 244 247 250 251 256 260 258 251 246 241 236 248 255 257 255 248
213 266 243 210 197 204 196 187 204 210 200 199 214 228 187 113 135 230 201 210 215 231 235 234 240 242 243 247 257 264 269 265 260 258 260 256 247 240 249 258 255 245 245
267 289 281 217 208 201 183 166 167 160 162 190 216 216 179 175 198 209 210 220 224 237 245 243 247 252 258 260 260 261 264 270 268 262 257 256 252 246 247 249 253 244 245
294 278 245 188 195 182 179 168 153 151 159 182 221 195 158 163 179 196 217 246 250 242 232 219 233 246 244 243 248 251 261 270 272 270 266 263 260 251 247 249 252 246 240
282 27 26 7 176 135 140 146 151 154 166 182 176 163 164 179 197 225 243 251 259 269 258 215 221 265 281 264 237 235 249 263 266 262 259 258 260 254 249 252 251 250 249
158 141 32 7 37 101 129 161 177 170 175 173 162 157 175 191 253 276 275 269 268 277 267 211 211 229 256 293 297 285 276 277 276 264 253 248 251 254 253 258 259 256 253
98 126 120 96 60 222 203 194 191 184 173 154 148 140 150 142 33 324 314 321 350 340 337 325 247 235 273 328 334 314 307 299 286 271 249 236 244 248 244 251 256 264 258
25 103 228 251 263 251 227 207 186 174 162 155 152 154 169 195 221 279 306 2 38 17 1 338 328 346 349 316 311 306 306 308 307 296 261 233 232 242 251 258 258 261 268